Iron Mountain, MI

6:08 PM CST on February 06, 2016 (GMT -0600)
Ford

Weather History for KIMT - March, 2013

Change the Weather History Date:

Thursday, March 14, 2013

  Actual Average Record
Temperature  
Mean Temperature 20 °F -  
Max Temperature 39 °F 37 °F 71 °F (2012)
Min Temperature 0 °F 18 °F -7 °F (1992)
Degree Days  
Heating Degree Days 46    
Moisture  
Dew Point 10 °F    
Average Humidity 62    
Maximum Humidity 84    
Minimum Humidity 32    
Precipitation  
Precipitation 0.00 in - - ()
Sea Level Pressure  
Sea Level Pressure 30.13 in    
Wind  
Wind Speed 2 mph (WSW)    
Max Wind Speed 10 mph    
Max Gust Speed 16 mph    
Visibility 10 miles    
Events      
Averages and records for this station are not official NWS values.
T = Trace of Precipitation, MM = Missing Value Source: NWS Daily Summary

Daily Weather History Graph

Daily Weather History Graph

Search for Another Location

Airport or City:

Trip Planner

Search our weather history database for the weather conditions in past years. The results will help you decide how hot, cold, wet, or windy it might be!

Date:

Astronomy

Mar. 14, 2013 Rise Set
Actual Time 7:06 AM CDT 6:57 PM CDT
Civil Twilight 6:36 AM CDT 7:27 PM CDT
Nautical Twilight 6:02 AM CDT 8:01 PM CDT
Astronomical Twilight 5:27 AM CDT 8:37 PM CDT
Moon 8:09 AM CDT (3/14) 10:26 PM CDT (3/14)
Length of Visible Light 12h 50m
Length of Day
11h 50m
Waxing Crescent, 9% of the Moon is Illuminated
Mar 14
Waxing Crescent
Mar 19
First Quarter
Mar 27
Full
Apr 2
Last Quarter
Apr 10
New

Hourly Weather History & Observations

Time (CDT) Temp. Windchill Dew Point Humidity Pressure Visibility Wind Dir Wind Speed Gust Speed Precip Events Conditions
12:54 AM 7.0 °F - 3.0 °F 84% 30.25 in 10.0 mi Calm Calm - N/A   Clear
1:54 AM 8.1 °F - 3.0 °F 80% 30.26 in 10.0 mi Calm Calm - N/A   Clear
2:54 AM 5.0 °F - 1.0 °F 84% 30.25 in 10.0 mi Calm Calm - N/A   Clear
3:54 AM 3.9 °F - -0.0 °F 84% 30.24 in 10.0 mi Calm Calm - N/A   Clear
4:54 AM 3.9 °F - -0.0 °F 84% 30.24 in 10.0 mi Calm Calm - N/A   Clear
5:54 AM 5.0 °F - -0.9 °F 76% 30.25 in 10.0 mi Calm Calm - N/A   Clear
6:54 AM -0.0 °F - -5.1 °F 79% 30.25 in 10.0 mi Calm Calm - N/A   Clear
7:54 AM 1.9 °F - -2.9 °F 80% 30.27 in 10.0 mi Calm Calm - N/A   Clear
8:54 AM 9.0 °F - 5.0 °F 84% 30.26 in 10.0 mi Calm Calm - N/A   Clear
9:54 AM 19.9 °F - 7.0 °F 57% 30.25 in 10.0 mi Calm Calm - N/A   Clear
10:54 AM 28.0 °F - 7.0 °F 41% 30.20 in 10.0 mi Calm Calm - N/A   Clear
11:54 AM 33.1 °F - 10.0 °F 38% 30.19 in 10.0 mi Calm Calm - N/A   Clear
12:54 PM 34.0 °F - 10.0 °F 37% 30.17 in 10.0 mi Calm Calm - N/A   Clear
1:54 PM 35.1 °F - 10.0 °F 35% 30.14 in 10.0 mi Calm Calm - N/A   Clear
2:54 PM 37.0 °F 31.6 °F 10.9 °F 34% 30.11 in 10.0 mi SW 6.9 mph - N/A   Clear
3:54 PM 39.0 °F 33.4 °F 10.9 °F 32% 30.09 in 10.0 mi WSW 8.1 mph - N/A   Clear
4:54 PM 37.9 °F 30.9 °F 15.1 °F 39% 30.05 in 10.0 mi SSW 10.4 mph 16.1 mph N/A   Clear
5:54 PM 37.9 °F 32.1 °F 18.0 °F 45% 30.04 in 10.0 mi WSW 8.1 mph - N/A   Partly Cloudy
6:54 PM 35.1 °F 30.1 °F 19.9 °F 54% 30.01 in 10.0 mi SSW 5.8 mph - N/A   Clear
7:54 PM 33.1 °F 26.9 °F 19.9 °F 59% 30.01 in 10.0 mi SW 6.9 mph - N/A   Clear
8:54 PM 33.1 °F 25.5 °F 21.0 °F 61% 29.99 in 10.0 mi WSW 9.2 mph - N/A   Partly Cloudy
9:54 PM 30.9 °F 26.2 °F 23.0 °F 72% 29.97 in 10.0 mi WSW 4.6 mph - N/A   Clear
10:28 PM 32.0 °F 25.6 °F 24.8 °F 75% 29.91 in 10.0 mi West 6.9 mph - N/A   Overcast
10:54 PM 32.0 °F 24.8 °F 24.1 °F 73% 29.95 in 10.0 mi West 8.1 mph - N/A   Overcast
11:54 PM 32.0 °F 24.8 °F 25.0 °F 75% 29.93 in 10.0 mi West 8.1 mph - N/A   Overcast